TimeCDT,TemperatureF,Dew PointF,Humidity,Sea Level PressureIn,VisibilityMPH,Wind Direction,Wind SpeedMPH,Gust SpeedMPH,PrecipitationIn,Events,Conditions,WindDirDegrees,DateUTC
12:15 AM,48.2,35.6,62,30.04,10.0,ENE,3.5,-,N/A,,Clear,70,2012-11-03 05:15:00
12:35 AM,48.2,35.6,62,30.04,10.0,ENE,4.6,-,N/A,,Clear,60,2012-11-03 05:35:00
12:55 AM,48.2,37.4,66,30.04,10.0,ENE,4.6,-,N/A,,Clear,70,2012-11-03 05:55:00
1:15 AM,50.0,37.4,62,30.03,10.0,East,5.8,-,N/A,,Clear,80,2012-11-03 06:15:00
1:35 AM,50.0,35.6,58,30.04,10.0,ENE,8.1,-,N/A,,Clear,60,2012-11-03 06:35:00
1:55 AM,48.2,35.6,62,30.04,10.0,ENE,6.9,-,N/A,,Clear,70,2012-11-03 06:55:00
2:15 AM,48.2,35.6,62,30.04,10.0,ENE,6.9,-,N/A,,Clear,70,2012-11-03 07:15:00
2:35 AM,48.2,35.6,62,30.04,10.0,ENE,4.6,-,N/A,,Clear,70,2012-11-03 07:35:00
2:55 AM,48.2,35.6,62,30.04,10.0,ENE,4.6,-,N/A,,Clear,70,2012-11-03 07:55:00
3:15 AM,48.2,35.6,62,30.03,10.0,East,5.8,-,N/A,,Clear,90,2012-11-03 08:15:00
3:35 AM,46.4,35.6,66,30.03,10.0,East,4.6,-,N/A,,Clear,90,2012-11-03 08:35:00
3:55 AM,48.2,35.6,62,30.02,10.0,East,4.6,-,N/A,,Clear,90,2012-11-03 08:55:00
4:15 AM,46.4,35.6,66,30.02,10.0,East,3.5,-,N/A,,Clear,100,2012-11-03 09:15:00
4:35 AM,46.4,35.6,66,30.02,10.0,East,4.6,-,N/A,,Clear,90,2012-11-03 09:35:00
4:55 AM,46.4,35.6,66,30.01,10.0,East,4.6,-,N/A,,Clear,80,2012-11-03 09:55:00
5:15 AM,46.4,35.6,66,30.01,10.0,East,4.6,-,N/A,,Clear,80,2012-11-03 10:15:00
5:35 AM,46.4,35.6,66,30.01,10.0,ENE,4.6,-,N/A,,Clear,70,2012-11-03 10:35:00
5:55 AM,46.4,35.6,66,30.01,10.0,ENE,4.6,-,N/A,,Clear,70,2012-11-03 10:55:00
6:15 AM,46.4,35.6,66,30.01,10.0,East,4.6,-,N/A,,Clear,80,2012-11-03 11:15:00
6:35 AM,46.4,35.6,66,30.00,10.0,East,5.8,-,N/A,,Clear,80,2012-11-03 11:35:00
6:55 AM,46.4,35.6,66,30.00,10.0,ENE,4.6,-,N/A,,Clear,70,2012-11-03 11:55:00
7:15 AM,46.4,37.4,71,30.00,10.0,East,4.6,-,N/A,,Scattered Clouds,80,2012-11-03 12:15:00
7:35 AM,46.4,35.6,66,30.00,10.0,ENE,5.8,-,N/A,,Scattered Clouds,70,2012-11-03 12:35:00
7:55 AM,48.2,37.4,66,30.00,10.0,ENE,4.6,-,N/A,,Scattered Clouds,70,2012-11-03 12:55:00
8:15 AM,50.0,37.4,62,30.01,10.0,ENE,6.9,-,N/A,,Mostly Cloudy,60,2012-11-03 13:15:00
8:35 AM,50.0,37.4,62,30.01,10.0,ENE,6.9,-,N/A,,Scattered Clouds,60,2012-11-03 13:35:00
8:55 AM,51.8,37.4,58,30.01,2.5,ENE,6.9,-,N/A,,Haze,60,2012-11-03 13:55:00
9:15 AM,51.8,39.2,62,30.01,2.0,NE,5.8,-,N/A,,Drizzle,50,2012-11-03 14:15:00
9:35 AM,53.6,37.4,54,30.01,3.0,NE,6.9,-,N/A,,Drizzle,50,2012-11-03 14:35:00
9:55 AM,55.4,39.2,54,30.01,4.0,NE,5.8,-,N/A,,Drizzle,40,2012-11-03 14:55:00
10:15 AM,57.2,39.2,51,30.00,1.5,East,5.8,-,N/A,,Haze,100,2012-11-03 15:15:00
10:35 AM,59.0,39.2,48,30.00,7.0,ESE,5.8,-,N/A,,Clear,110,2012-11-03 15:35:00
10:55 AM,60.8,39.2,45,30.00,10.0,East,4.6,-,N/A,,Clear,80,2012-11-03 15:55:00
11:15 AM,62.6,41.0,45,29.99,10.0,East,3.5,-,N/A,,Scattered Clouds,90,2012-11-03 16:15:00
11:35 AM,62.6,42.8,48,29.99,10.0,Calm,Calm,-,N/A,,Scattered Clouds,0,2012-11-03 16:35:00
11:55 AM,64.4,42.8,45,29.98,10.0,Calm,Calm,-,N/A,,Clear,0,2012-11-03 16:55:00
12:15 PM,66.2,46.4,49,29.96,10.0,West,3.5,-,N/A,,Clear,260,2012-11-03 17:15:00
12:35 PM,68.0,46.4,46,29.96,10.0,SSE,4.6,-,N/A,,Clear,160,2012-11-03 17:35:00
12:55 PM,68.0,46.4,46,29.95,10.0,WSW,4.6,-,N/A,,Scattered Clouds,250,2012-11-03 17:55:00
1:15 PM,68.0,46.4,46,29.95,10.0,West,5.8,-,N/A,,Clear,280,2012-11-03 18:15:00
1:35 PM,69.8,48.2,46,29.95,10.0,WSW,6.9,-,N/A,,Clear,250,2012-11-03 18:35:00
1:55 PM,69.8,46.4,43,29.95,10.0,WNW,4.6,-,N/A,,Clear,290,2012-11-03 18:55:00
2:15 PM,71.6,46.4,41,29.95,10.0,WNW,10.4,-,N/A,,Clear,300,2012-11-03 19:15:00
2:35 PM,69.8,46.4,43,29.95,10.0,WNW,8.1,-,N/A,,Clear,300,2012-11-03 19:35:00
2:55 PM,69.8,46.4,43,29.96,10.0,West,11.5,16.1,N/A,,Clear,280,2012-11-03 19:55:00
3:15 PM,69.8,46.4,43,29.96,10.0,WNW,11.5,-,N/A,,Clear,300,2012-11-03 20:15:00
3:35 PM,69.8,44.6,40,29.97,10.0,West,11.5,-,N/A,,Clear,280,2012-11-03 20:35:00
3:55 PM,69.8,44.6,40,29.98,10.0,WNW,10.4,17.3,N/A,,Clear,300,2012-11-03 20:55:00
4:15 PM,68.0,44.6,43,29.99,10.0,NNW,13.8,17.3,N/A,,Scattered Clouds,330,2012-11-03 21:15:00
4:35 PM,66.2,42.8,43,30.00,10.0,NNW,13.8,-,N/A,,Scattered Clouds,330,2012-11-03 21:35:00
4:55 PM,64.4,41.0,42,30.01,10.0,NW,16.1,-,N/A,,Clear,320,2012-11-03 21:55:00
5:15 PM,62.6,41.0,45,30.01,10.0,NNW,16.1,19.6,N/A,,Clear,330,2012-11-03 22:15:00
5:35 PM,60.8,41.0,48,30.02,10.0,NNW,15.0,-,N/A,,Clear,330,2012-11-03 22:35:00
5:55 PM,59.0,39.2,48,30.02,10.0,NNW,13.8,-,N/A,,Clear,330,2012-11-03 22:55:00
6:15 PM,57.2,39.2,51,30.03,10.0,NNW,16.1,20.7,N/A,,Clear,330,2012-11-03 23:15:00
6:35 PM,55.4,39.2,54,30.04,10.0,NW,13.8,-,N/A,,Clear,320,2012-11-03 23:35:00
6:55 PM,53.6,39.2,58,30.05,10.0,North,13.8,-,N/A,,Clear,360,2012-11-03 23:55:00
7:15 PM,53.6,39.2,58,30.07,10.0,North,13.8,-,N/A,,Clear,350,2012-11-04 00:15:00
7:35 PM,53.6,39.2,58,30.07,10.0,North,11.5,-,N/A,,Clear,350,2012-11-04 00:35:00
7:55 PM,51.8,39.2,62,30.08,10.0,North,4.6,-,N/A,,Scattered Clouds,360,2012-11-04 00:55:00
8:15 PM,51.8,39.2,62,30.09,10.0,North,6.9,-,N/A,,Scattered Clouds,360,2012-11-04 01:15:00
8:35 PM,50.0,37.4,62,30.10,10.0,North,9.2,-,N/A,,Clear,350,2012-11-04 01:35:00
8:55 PM,50.0,37.4,62,30.11,10.0,North,5.8,-,N/A,,Clear,350,2012-11-04 01:55:00
9:15 PM,48.2,37.4,66,30.13,10.0,North,5.8,-,N/A,,Clear,350,2012-11-04 02:15:00
9:35 PM,48.2,37.4,66,30.13,10.0,North,8.1,-,N/A,,Clear,350,2012-11-04 02:35:00
9:55 PM,48.2,39.2,71,30.13,10.0,North,8.1,-,N/A,,Clear,350,2012-11-04 02:55:00
10:15 PM,48.2,37.4,66,30.13,10.0,North,8.1,-,N/A,,Clear,360,2012-11-04 03:15:00
10:35 PM,48.2,37.4,66,30.14,10.0,North,6.9,-,N/A,,Clear,10,2012-11-04 03:35:00
10:55 PM,46.4,37.4,71,30.14,10.0,North,6.9,-,N/A,,Clear,10,2012-11-04 03:55:00
11:15 PM,46.4,37.4,71,30.13,10.0,North,6.9,-,N/A,,Clear,360,2012-11-04 04:15:00
11:35 PM,44.6,37.4,76,30.13,10.0,North,9.2,-,N/A,,Clear,10,2012-11-04 04:35:00
11:55 PM,44.6,37.4,76,30.13,10.0,North,6.9,-,N/A,,Clear,360,2012-11-04 04:55:00